Macomb, IL

4:44 AM CDT on August 18, 2017 (GMT -0500)
Macomb Municipal

Weather History for KMQB - February, 2013

Change the Weather History Date:

Monday, February 25, 2013

  Actual Average (KBRL) Record (KBRL)
Temperature  
Mean Temperature 27 °F -  
Max Temperature 37 °F 37 °F 71 °F (2000)
Min Temperature 17 °F 21 °F -9 °F (1967)
Degree Days  
Heating Degree Days 38    
Moisture  
Dew Point 27 °F    
Average Humidity 88    
Maximum Humidity 100    
Minimum Humidity 74    
Precipitation  
Precipitation 0.00 in - - ()
Sea Level Pressure  
Sea Level Pressure 30.03 in    
Wind  
Wind Speed 8 mph (ENE)    
Max Wind Speed 22 mph    
Max Gust Speed 22 mph    
Visibility 8 miles    
Events      
Averages and records for this station are not official NWS values.
T = Trace of Precipitation, MM = Missing Value Source: NWS Daily Summary

Daily Weather History Graph

Daily Weather History Graph

Search for Another Location

Airport or City:

Trip Planner

Search our weather history database for the weather conditions in past years. The results will help you decide how hot, cold, wet, or windy it might be!

Date:

Astronomy

Feb. 25, 2013 Rise Set
Actual Time 6:41 AM CST 5:49 PM CST
Civil Twilight 6:14 AM CST 6:17 PM CST
Nautical Twilight 5:42 AM CST 6:49 PM CST
Astronomical Twilight 5:11 AM CST 7:20 PM CST
Moon 6:03 PM CST (2/25) 6:12 AM CST (2/25)
Length of Visible Light 12h 02m
Length of Day
11h 07m
Full, 100% of the Moon is Illuminated
Feb 25
Full
Feb 25
Full
Mar 4
Last Quarter
Mar 11
New
Mar 19
First Quarter

Hourly Weather History & Observations

Time (CST) Temp. Windchill Dew Point Humidity Pressure Visibility Wind Dir Wind Speed Gust Speed Precip Events Conditions
12:15 AM 21.6 °F 13.0 °F 20.5 °F 96% 30.11 in 7.0 mi East 6.9 mph - N/A   Clear
12:35 AM 22.1 °F 14.7 °F 21.0 °F 96% 30.10 in 7.0 mi ENE 5.8 mph - N/A   Clear
12:55 AM 23.0 °F 17.0 °F 21.2 °F 93% 30.10 in 7.0 mi ENE 4.6 mph - N/A   Clear
1:15 AM 23.2 °F 17.2 °F 21.7 °F 94% 30.11 in 7.0 mi ENE 4.6 mph - N/A   Clear
1:35 AM 23.2 °F 18.7 °F 21.9 °F 95% 30.12 in 7.0 mi ENE 3.5 mph - N/A   Clear
1:55 AM 21.0 °F - 19.0 °F 92% 30.12 in 7.0 mi Calm Calm - N/A   Clear
2:15 AM 20.3 °F 15.4 °F 19.4 °F 96% 30.11 in 5.0 mi East 3.5 mph - N/A   Clear
2:35 AM 20.1 °F 12.3 °F 19.6 °F 98% 30.10 in 4.0 mi East 5.8 mph - N/A   Clear
2:55 AM 19.9 °F 12.1 °F 19.8 °F 99% 30.10 in 3.0 mi East 5.8 mph - N/A   Clear
3:15 AM 19.6 °F 14.5 °F 19.4 °F 99% 30.10 in 4.0 mi East 3.5 mph - N/A   Clear
3:35 AM 19.6 °F 14.5 °F 19.4 °F 99% 30.09 in 3.0 mi ENE 3.5 mph - N/A   Clear
3:55 AM 19.4 °F 12.8 °F 19.2 °F 99% 30.09 in 4.0 mi ENE 4.6 mph - N/A   Clear
4:15 AM 21.4 °F 15.1 °F 21.2 °F 99% 30.10 in 5.0 mi ENE 4.6 mph - N/A   Clear
4:35 AM 21.2 °F 13.6 °F 20.7 °F 98% 30.10 in 5.0 mi ENE 5.8 mph - N/A   Clear
4:55 AM 20.3 °F 12.5 °F 19.9 °F 99% 30.10 in 5.0 mi ENE 5.8 mph - N/A   Clear
5:15 AM 20.3 °F 13.8 °F 19.9 °F 99% 30.11 in 5.0 mi ENE 4.6 mph - N/A   Clear
5:35 AM 19.4 °F 11.5 °F 18.9 °F 98% 30.10 in 4.0 mi ENE 5.8 mph - N/A   Clear
5:55 AM 19.4 °F 10.4 °F 19.4 °F 100% 30.09 in 3.0 mi East 6.9 mph - N/A   Clear
6:15 AM 17.4 °F 8.0 °F 16.9 °F 98% 30.09 in 4.0 mi East 6.9 mph - N/A   Clear
6:35 AM 18.9 °F 9.8 °F 18.7 °F 99% 30.08 in 3.0 mi East 6.9 mph - N/A   Clear
6:55 AM 18.9 °F 9.8 °F 18.5 °F 98% 30.08 in 2.5 mi ENE 6.9 mph - N/A   Clear
7:15 AM 19.4 °F 9.5 °F 19.0 °F 98% 30.08 in 2.5 mi ENE 8.1 mph - N/A   Clear
7:35 AM 19.8 °F 10.8 °F 19.0 °F 97% 30.09 in 3.0 mi ENE 6.9 mph - N/A   Clear
7:55 AM 22.5 °F 14.1 °F 21.9 °F 98% 30.09 in 4.0 mi ENE 6.9 mph - N/A   Clear
8:15 AM 24.8 °F 19.1 °F 23.7 °F 96% 30.10 in 4.0 mi ENE 4.6 mph - N/A   Clear
8:35 AM 27.1 °F 20.7 °F 25.2 °F 92% 30.10 in 5.0 mi ENE 5.8 mph - N/A   Clear
8:55 AM 28.4 °F 22.2 °F 25.9 °F 90% 30.10 in 5.0 mi ENE 5.8 mph - N/A   Clear
9:15 AM 30.4 °F 22.9 °F 27.1 °F 88% 30.08 in 7.0 mi ENE 8.1 mph - N/A   Clear
9:35 AM 31.8 °F 24.6 °F 27.9 °F 85% 30.08 in 7.0 mi East 8.1 mph - N/A   Clear
9:55 AM 32.0 °F 26.4 °F 28.4 °F 87% 30.09 in 7.0 mi ENE 5.8 mph - N/A   Clear
10:15 AM 33.8 °F 29.6 °F 28.9 °F 82% 30.10 in 10.0 mi ENE 4.6 mph - N/A   Clear
10:35 AM 34.9 °F 29.0 °F 29.5 °F 81% 30.10 in 10.0 mi East 6.9 mph - N/A   Clear
10:55 AM 36.3 °F 30.8 °F 29.7 °F 77% 30.09 in 10.0 mi East 6.9 mph - N/A   Clear
10:58 AM 35.6 °F 29.2 °F 30.2 °F 81% 30.09 in 10.0 mi East 8.1 mph - N/A   Clear
11:15 AM 36.5 °F 30.3 °F 29.7 °F 76% 30.10 in 10.0 mi East 8.1 mph - N/A   Clear
11:35 AM 37.2 °F 31.2 °F 29.5 °F 74% 30.10 in 10.0 mi East 8.1 mph - N/A   Clear
11:55 AM 37.4 °F 31.4 °F 29.8 °F 74% 30.08 in 10.0 mi East 8.1 mph - N/A   Clear
12:15 PM 36.9 °F 31.4 °F 30.2 °F 77% 30.07 in 10.0 mi East 6.9 mph - N/A   Clear
12:35 PM 36.9 °F 31.4 °F 30.7 °F 79% 30.07 in 10.0 mi East 6.9 mph - N/A   Clear
12:55 PM 37.4 °F 32.1 °F 31.1 °F 78% 30.07 in 10.0 mi East 6.9 mph - N/A   Clear
1:15 PM 37.4 °F 31.4 °F 30.9 °F 77% 30.05 in 10.0 mi ENE 8.1 mph - N/A   Clear
1:35 PM 37.4 °F 32.8 °F 31.6 °F 80% 30.05 in 10.0 mi East 5.8 mph - N/A   Clear
1:55 PM 37.4 °F 30.8 °F 31.1 °F 78% 30.03 in 10.0 mi ENE 9.2 mph - N/A   Clear
2:15 PM 37.4 °F 29.8 °F 31.1 °F 78% 30.01 in 10.0 mi ENE 11.5 mph - N/A   Clear
2:35 PM 37.6 °F 31.0 °F 30.7 °F 76% 30.01 in 10.0 mi ENE 9.2 mph - N/A   Clear
2:55 PM 37.2 °F 30.0 °F 31.5 °F 80% 30.00 in 10.0 mi NE 10.4 mph - N/A   Clear
3:15 PM 36.9 °F 31.4 °F 32.0 °F 83% 29.99 in 10.0 mi ENE 6.9 mph - N/A   Clear
3:35 PM 36.9 °F 32.2 °F 32.0 °F 83% 29.99 in 10.0 mi ENE 5.8 mph - N/A   Clear
3:55 PM 36.5 °F 30.3 °F 32.0 °F 84% 29.98 in 10.0 mi NE 8.1 mph - N/A   Clear
4:15 PM 36.9 °F 29.6 °F 32.0 °F 83% 29.97 in 10.0 mi NE 10.4 mph - N/A   Clear
4:35 PM 37.4 °F 29.3 °F 32.0 °F 81% 29.97 in 10.0 mi NE 12.7 mph - N/A   Clear
4:55 PM 36.5 °F 28.2 °F 32.0 °F 84% 29.96 in 10.0 mi NE 12.7 mph - N/A   Clear
5:15 PM 36.5 °F 27.4 °F 32.4 °F 85% 29.94 in 7.0 mi NE 15.0 mph - N/A   Clear
5:35 PM 36.1 °F 28.7 °F 32.4 °F 86% 29.95 in 7.0 mi NE 10.4 mph - N/A   Scattered Clouds
5:55 PM 35.6 °F 28.0 °F 32.4 °F 88% 29.96 in 7.0 mi NE 10.4 mph - N/A   Clear
6:15 PM 35.8 °F 28.3 °F 32.4 °F 87% 29.97 in 10.0 mi NE 10.4 mph - N/A   Clear
6:35 PM 35.1 °F 25.5 °F 32.0 °F 89% 29.94 in 10.0 mi NE 15.0 mph - N/A   Scattered Clouds
6:55 PM 35.6 °F 27.1 °F 32.0 °F 87% 29.95 in 10.0 mi NE 12.7 mph - N/A   Scattered Clouds
7:15 PM 35.4 °F 26.0 °F 32.0 °F 87% 29.94 in 10.0 mi NE 15.0 mph - N/A   Mostly Cloudy
7:35 PM 35.1 °F 25.2 °F 32.0 °F 89% 29.94 in 10.0 mi NE 16.1 mph - N/A   Scattered Clouds
7:55 PM 35.1 °F 25.5 °F 32.0 °F 89% 29.95 in 10.0 mi NE 15.0 mph - N/A   Scattered Clouds
8:15 PM 35.2 °F 27.6 °F 31.8 °F 87% 29.97 in 10.0 mi ENE 10.4 mph - N/A   Clear
8:35 PM 34.9 °F 27.1 °F 31.8 °F 89% 29.97 in 10.0 mi ENE 10.4 mph - N/A   Mostly Cloudy
8:55 PM 34.3 °F 25.0 °F 31.6 °F 90% 29.95 in 10.0 mi ENE 13.8 mph - N/A   Mostly Cloudy
9:15 PM 34.7 °F 25.1 °F 31.3 °F 87% 29.94 in 10.0 mi ENE 15.0 mph - N/A   Scattered Clouds
9:35 PM 34.7 °F 24.0 °F 31.1 °F 87% 29.92 in 10.0 mi NE 18.4 mph - N/A   Mostly Cloudy
9:55 PM 34.3 °F 23.2 °F 30.9 °F 87% 29.90 in 10.0 mi ENE 19.6 mph - N/A   Overcast
10:15 PM 34.3 °F 23.2 °F 30.9 °F 87% 29.88 in 10.0 mi ENE 19.6 mph - N/A   Overcast
10:35 PM 34.2 °F 22.3 °F 30.9 °F 88% 29.87 in 10.0 mi ENE 21.9 mph - N/A   Overcast
10:55 PM 34.3 °F 22.9 °F 30.7 °F 87% 29.86 in 10.0 mi ENE 20.7 mph - N/A   Overcast
11:15 PM 34.3 °F 24.6 °F 30.7 °F 87% 29.86 in 10.0 mi ENE 15.0 mph - N/A   Overcast
11:35 PM 34.7 °F 23.1 °F 30.2 °F 84% 29.84 in 10.0 mi ENE 21.9 mph - N/A   Overcast
11:55 PM 34.9 °F 24.2 °F 30.0 °F 82% 29.84 in 10.0 mi ENE 18.4 mph 21.9 mph N/A   Overcast